[Date Prev][Date Next][Thread Prev][Thread Next] - [Date Index][Thread Index][Author Index]
2 Line ISS Keps 4-19
- Subject: [sarex] 2 Line ISS Keps 4-19
- From: "Dave Larsen PhD" <doc@xxxxxxxxxxx>
- Date: Tue, 18 Apr 2006 18:41:11 -0700
ISS
1 25544U 98067A 06109.00069097 .00011196 00000-0 76095-4 0 7613
2 25544 051.6390 132.1368 0009180 125.4024 302.7141 15.75480108423833
----
Via the sarex mailing list at AMSAT.ORG courtesy of AMSAT-NA.
To unsubscribe, send "unsubscribe sarex" to Majordomo@amsat.org
AMSAT Home